Flag for U.S.A. Weather past 2 weeks in Wilmington, Delaware, U.S.A.

Now
34 °F

Overcast.


Feels Like: 29 °F
Forecast: 29 / 38 °F
Wind: 6 mph from North

Location: New Castle County Airport

Current Time: Dec 20, 2014 at 10:24:37 AM

Latest Report: Dec 20, 2014 at 9:51 AM


Visibility: 10 mi

Pressure: 30.33 "Hg

Humidity: 59%

Dew point: 21 °F

Location of WilmingtonLocation

Historic Weather in Wilmington — Graph

°F

Wilmington temperature yesterday

Maximum temperature yesterday: 42 °F (at 2:51 PM)
Minimum temperature yesterday: 28 °F (at 9:51 PM)
Average temperature yesterday: 36 °F

Past Weeks' High & Low Weather Summary

 TemperatureHumidityPressure
High53 °F (Dec 17, 11:51 AM)97% (Dec 6, 11:51 AM)30.63 "Hg (Dec 6, 11:51 AM)
Low28 °F (Dec 19, 9:51 PM)32% (Dec 7, 1:51 PM)29.72 "Hg (Dec 10, 5:51 AM)
Average39 °F71%30.08 "Hg
* Reported Dec 5 9:51 AM — Dec 20 9:03 AM, Wilmington, Weather by CustomWeather, © 2014

Note: Actual official high and low records may vary slightly from our data, if they occured in-between our weather recording intervals... More about our weather records

Advertising

Wilmington weather history for previous 24 hours

 ConditionsComfort  
Time TempWeatherWind HumidityBarometerVisibility
9:03 AM
Dec 20
34 °FOvercast.7 mph61%30.31 "Hg10 mi
8:51 AM34 °FOvercast.6 mph61%30.31 "Hg10 mi
7:51 AM33 °FOvercast.6 mph66%30.30 "Hg10 mi
6:51 AM33 °FOvercast.3 mph70%30.27 "Hg10 mi
5:51 AM33 °FOvercast.5 mph70%30.25 "Hg10 mi
4:51 AM33 °FOvercast.7 mph70%30.25 "Hg10 mi
3:51 AM32 °FOvercast.7 mph73%30.24 "Hg10 mi
2:51 AM31 °FOvercast.3 mph73%30.23 "Hg10 mi
1:51 AM31 °FOvercast.5 mph73%30.22 "Hg10 mi
12:51 AM29 °FPassing clouds.5 mph75%30.22 "Hg10 mi
11:51 PM
Dec 19
29 °FClear.5 mph72%30.22 "Hg10 mi
10:51 PM31 °FPassing clouds.5 mph67%30.22 "Hg10 mi
9:51 PM28 °FClear.6 mph72%30.22 "Hg10 mi
8:51 PM31 °FClear.7 mph67%30.20 "Hg10 mi
7:51 PM33 °FClear.7 mph63%30.19 "Hg10 mi
6:51 PM32 °FClear.8 mph66%30.17 "Hg10 mi
5:51 PM35 °FClear.7 mph59%30.16 "Hg10 mi
4:51 PM38 °FClear.13 mph53%30.13 "Hg10 mi
3:51 PM41 °FSunny.13 mph49%30.11 "Hg10 mi
2:51 PM42 °FSunny.16 mph47%30.09 "Hg10 mi
1:51 PM41 °FPassing clouds.16 mph49%30.09 "Hg10 mi
12:51 PM41 °FOvercast.13 mph51%30.10 "Hg10 mi
11:51 AM39 °FOvercast.17 mph55%30.10 "Hg10 mi
10:51 AM39 °FOvercast.13 mph57%30.11 "Hg10 mi
Weather by CustomWeather, © 2014

See weather overviewHow to use our weather pages